Regional Weather Roundup
Issued by NWS

Home | Current Version | Previous Version | Graphics & Text | Print | Product List | Glossary On
Versions: 1 2 3 4 5 6 7 8 9 10 11 12 13 14 15 16 17 18 19 20 21 22 23 24 25 26 27 28 29 30 31 32 33 34 35 36 37 38 39 40 41 42 43 44 45 46 47 48 49 50
180
ASUS43 KBIS 201210
RWRND

NORTH DAKOTA REGIONAL WEATHER ROUNDUP
NATIONAL WEATHER SERVICE BISMARCK ND
600 AM CST SAT JAN 20 2018

NOTE: "FAIR" INDICATES FEW OR NO CLOUDS BELOW 12,000 FEET WITH NO
SIGNIFICANT WEATHER AND/OR OBSTRUCTIONS TO VISIBILITY.


NDZ001>003-009>011-017-201300-
NORTHWEST NORTH DAKOTA

CITY           SKY/WX    TMP DP  RH WIND       PRES   REMARKS
WILLISTON      MOCLDY    29  21  72 W9        29.76R
6HR MIN TEMP:  27; 6HR MAX TEMP:  34;

MINOT          PTCLDY    31  24  75 SW8       29.71S
MINOT AFB      CLOUDY    30  23  75 W9        29.71R
$$

NDZ018>021-031>035-040>046-201300-
SOUTHWEST NORTH DAKOTA

CITY           SKY/WX    TMP DP  RH WIND       PRES   REMARKS
BISMARCK       CLOUDY    35  31  85 W6        29.80R
6HR MIN TEMP:  31; 6HR MAX TEMP:  38;

DICKINSON      CLOUDY    31  29  92 SW8       29.77S
GARRISON         N/A     28  24  85 W9        29.75R WCI  19
6HR MIN TEMP:  23; 6HR MAX TEMP:  30;

HETTINGER ARPT CLOUDY    33  31  92 W6        29.83R
$$

NDZ004>008-012>016-024-026-027-054-201300-
NORTHEAST NORTH DAKOTA

CITY           SKY/WX    TMP DP  RH WIND       PRES   REMARKS
GRAND FORKS    MOCLDY    28  25  88 W5        29.74R
GRND FRKS AFB  FAIR      30  24  79 NW8       29.73R
DEVILS LAKE    FAIR      24  22  91 W5        29.72S WCI  18
$$

NDZ022-023-025-028>030-036>039-047>053-201300-
SOUTHEAST NORTH DAKOTA

CITY           SKY/WX    TMP DP  RH WIND       PRES   REMARKS
FARGO          CLOUDY    28  25  88 S8        29.77R WCI  20
6HR MIN TEMP:  22; 6HR MAX TEMP:  28;

JAMESTOWN      PTCLDY    31  27  85 W8        29.75R
$$





USA.gov is the U.S. government's official web portal to all federal, state and local government web resources and services.